| time (UTC) | temp F | wind direction | speed MPH | gust MPH | rain 1hr in | rain 24hr in | rain mn in | humidity % | barometer mb |
| 20260509222047 | 65 | 293 | 2.0 | 3.0 | 0.00 | 0.00 | 0.00 | 49 | 1013.6 |
| 20260509221048 | 64 | 338 | 1.0 | 2.0 | 0.00 | 0.00 | 0.00 | 51 | 1013.6 |
| 20260509220047 | 63 | 23 | 2.0 | 3.0 | 0.00 | 0.00 | 0.00 | 51 | 1013.6 |
| 20260509215047 | 63 | 270 | 3.0 | 3.0 | 0.00 | 0.00 | 0.00 | 50 | 1013.9 |
| 20260509214046 | 64 | 248 | 2.0 | 2.0 | 0.00 | 0.00 | 0.00 | 51 | 1013.6 |
| 20260509213046 | 65 | 315 | 1.0 | 2.0 | 0.00 | 0.00 | 0.00 | 49 | 1013.6 |
| 20260509212047 | 65 | 360 | 1.0 | 2.0 | 0.00 | 0.00 | 0.00 | 49 | 1013.6 |
| 20260509211049 | 66 | 315 | 2.0 | 3.0 | 0.00 | 0.00 | 0.00 | 49 | 1013.6 |
| 20260509210047 | 64 | 270 | 2.0 | 3.0 | 0.00 | 0.00 | 0.00 | 51 | 1013.2 |
| 20260509205047 | 64 | 248 | 2.0 | 2.0 | 0.00 | 0.00 | 0.00 | 48 | 1013.6 |
| 20260509204047 | 65 | 360 | 2.0 | 2.0 | 0.00 | 0.00 | 0.00 | 48 | 1013.6 |
| 20260509203047 | 64 | 360 | 3.0 | 4.0 | 0.00 | 0.00 | 0.00 | 47 | 1013.2 |
| 20260509202047 | 64 | 248 | 1.0 | 2.0 | 0.00 | 0.00 | 0.00 | 48 | 1013.2 |
| 20260509201047 | 66 | 248 | 1.0 | 2.0 | 0.00 | 0.00 | 0.00 | 45 | 1013.2 |
| 20260509200047 | 66 | 315 | 3.0 | 5.0 | 0.00 | 0.00 | 0.00 | 44 | 1013.2 |
| 20260509195047 | 68 | 270 | 3.0 | 4.0 | 0.00 | 0.00 | 0.00 | 42 | 1013.6 |
| 20260509194047 | 68 | 203 | 1.0 | 2.0 | 0.00 | 0.00 | 0.00 | 42 | 1013.6 |
| 20260509193047 | 68 | 248 | 2.0 | 3.0 | 0.00 | 0.00 | 0.00 | 44 | 1013.6 |
| 20260509192047 | 68 | 338 | 3.0 | 4.0 | 0.00 | 0.00 | 0.00 | 41 | 1013.6 |
| 20260509191047 | 70 | 360 | 3.0 | 3.0 | 0.00 | 0.00 | 0.00 | 40 | 1013.6 |
| 20260509190046 | 71 | 360 | 4.0 | 5.0 | 0.00 | 0.00 | 0.00 | 40 | 1013.6 |
| 20260509185047 | 69 | 23 | 2.0 | 3.0 | 0.00 | 0.00 | 0.00 | 42 | 1013.9 |
| 20260509184047 | 67 | 270 | 3.0 | 5.0 | 0.00 | 0.00 | 0.00 | 44 | 1013.6 |
| 20260509183047 | 64 | 293 | 1.0 | 2.0 | 0.00 | 0.00 | 0.00 | 52 | 1013.9 |
| 20260509182048 | 67 | 23 | 1.0 | 1.0 | 0.00 | 0.00 | 0.00 | 49 | 1013.9 |
| 20260509181047 | 65 | 135 | 3.0 | 4.0 | 0.00 | 0.00 | 0.00 | 51 | 1014.3 |
| 20260509180047 | 63 | 158 | 1.0 | 2.0 | 0.00 | 0.00 | 0.00 | 55 | 1014.3 |
| 20260509175049 | 62 | 270 | 3.0 | 5.0 | 0.00 | 0.00 | 0.00 | 54 | 1014.6 |
| 20260509174047 | 60 | 270 | 2.0 | 3.0 | 0.00 | 0.00 | 0.00 | 57 | 1014.6 |
| 20260509173047 | 61 | 158 | 3.0 | 4.0 | 0.00 | 0.00 | 0.00 | 56 | 1014.6 |
| 20260509172047 | 61 | 203 | 3.0 | 4.0 | 0.00 | 0.00 | 0.00 | 55 | 1014.3 |
| 20260509171047 | 61 | 90 | 1.0 | 2.0 | 0.00 | 0.00 | 0.00 | 57 | 1014.6 |
| 20260509170047 | 61 | 90 | 0.0 | 2.0 | 0.00 | 0.00 | 0.00 | 57 | 1014.9 |
| 20260509165047 | 61 | 315 | 2.0 | 2.0 | 0.00 | 0.00 | 0.00 | 54 | 1014.9 |
| 20260509164047 | 62 | 270 | 1.0 | 2.0 | 0.00 | 0.00 | 0.00 | 52 | 1014.9 |
| 20260509163047 | 63 | 158 | 1.0 | 2.0 | 0.00 | 0.00 | 0.00 | 55 | 1014.6 |
| 20260509162048 | 63 | 248 | 1.0 | 2.0 | 0.00 | 0.00 | 0.00 | 52 | 1014.6 |
| 20260509161047 | 64 | 180 | 2.0 | 2.0 | 0.00 | 0.00 | 0.00 | 47 | 1014.6 |
| 20260509160049 | 62 | 360 | 0.0 | 1.0 | 0.00 | 0.00 | 0.00 | 51 | 1014.6 |
| 20260509155047 | 62 | 270 | 1.0 | 2.0 | 0.00 | 0.00 | 0.00 | 52 | 1014.6 |
| 20260509154051 | 60 | 315 | 1.0 | 2.0 | 0.00 | 0.00 | 0.00 | 54 | 1014.6 |
| 20260509153047 | 61 | 338 | 2.0 | 2.0 | 0.00 | 0.00 | 0.00 | 54 | 1014.6 |
| 20260509152047 | 62 | 338 | 2.0 | 2.0 | 0.00 | 0.00 | 0.00 | 54 | 1014.6 |
| 20260509151047 | 60 | 113 | 1.0 | 2.0 | 0.00 | 0.00 | 0.00 | 55 | 1014.3 |
| 20260509150047 | 61 | 270 | 1.0 | 2.0 | 0.00 | 0.00 | 0.00 | 56 | 1014.6 |
| 20260509145047 | 62 | 338 | 2.0 | 3.0 | 0.00 | 0.00 | 0.00 | 53 | 1014.6 |
| 20260509144052 | 61 | 338 | 3.0 | 3.0 | 0.00 | 0.00 | 0.00 | 56 | 1014.6 |
| 20260509143047 | 60 | 315 | 2.0 | 3.0 | 0.00 | 0.00 | 0.00 | 57 | 1014.3 |
| 20260509142047 | 59 | 293 | 3.0 | 5.0 | 0.00 | 0.00 | 0.00 | 60 | 1014.6 |
| 20260509141046 | 59 | 270 | 4.0 | 5.0 | 0.00 | 0.00 | 0.00 | 60 | 1014.9 |
| 20260509140048 | 56 | 23 | 2.0 | 2.0 | 0.00 | 0.00 | 0.00 | 65 | 1014.9 |
| 20260509135047 | 56 | 293 | 2.0 | 2.0 | 0.00 | 0.00 | 0.00 | 66 | 1014.9 |
| 20260509134049 | 56 | 315 | 3.0 | 4.0 | 0.00 | 0.00 | 0.00 | 66 | 1015.3 |
| 20260509133048 | 55 | 225 | 4.0 | 5.0 | 0.00 | 0.00 | 0.00 | 66 | 1015.3 |
| 20260509132048 | 55 | 23 | 3.0 | 4.0 | 0.00 | 0.00 | 0.00 | 67 | 1015.3 |
| 20260509131046 | 55 | 338 | 3.0 | 5.0 | 0.00 | 0.00 | 0.00 | 67 | 1014.9 |
| 20260509130046 | 54 | 315 | 3.0 | 3.0 | 0.00 | 0.00 | 0.00 | 68 | 1014.9 |
| 20260509125049 | 54 | 338 | 3.0 | 4.0 | 0.00 | 0.00 | 0.00 | 68 | 1014.9 |
| 20260509124047 | 53 | 315 | 3.0 | 4.0 | 0.00 | 0.00 | 0.00 | 69 | 1014.9 |
| 20260509123049 | 53 | 23 | 4.0 | 5.0 | 0.00 | 0.00 | 0.00 | 69 | 1014.9 |
| 20260509122047 | 53 | 360 | 3.0 | 4.0 | 0.00 | 0.00 | 0.00 | 69 | 1015.3 |
| 20260509121049 | 53 | 270 | 3.0 | 5.0 | 0.00 | 0.00 | 0.00 | 69 | 1014.9 |
| 20260509120047 | 53 | 293 | 3.0 | 3.0 | 0.00 | 0.00 | 0.00 | 69 | 1014.9 |
| 20260509115050 | 52 | 315 | 3.0 | 4.0 | 0.00 | 0.00 | 0.00 | 69 | 1014.9 |
| 20260509114047 | 52 | 293 | 3.0 | 4.0 | 0.00 | 0.00 | 0.00 | 68 | 1014.9 |
| 20260509113049 | 52 | 270 | 2.0 | 4.0 | 0.00 | 0.00 | 0.00 | 68 | 1014.9 |
| 20260509112047 | 52 | 338 | 3.0 | 5.0 | 0.00 | 0.00 | 0.00 | 68 | 1014.9 |
| 20260509111047 | 52 | 315 | 3.0 | 3.0 | 0.00 | 0.00 | 0.00 | 68 | 1014.6 |
| 20260509110049 | 52 | 293 | 3.0 | 3.0 | 0.00 | 0.00 | 0.00 | 67 | 1014.9 |
| 20260509105049 | 51 | 315 | 2.0 | 2.0 | 0.00 | 0.00 | 0.00 | 67 | 1014.6 |
| 20260509104049 | 51 | 315 | 3.0 | 3.0 | 0.00 | 0.00 | 0.00 | 66 | 1014.9 |
| 20260509103047 | 51 | 293 | 2.0 | 3.0 | 0.00 | 0.00 | 0.00 | 65 | 1014.6 |
| 20260509102047 | 52 | 338 | 3.0 | 4.0 | 0.00 | 0.00 | 0.00 | 64 | 1014.9 |
| 20260509101047 | 52 | 293 | 4.0 | 5.0 | 0.00 | 0.00 | 0.00 | 64 | 1014.9 |
| 20260509100047 | 51 | 360 | 3.0 | 3.0 | 0.00 | 0.00 | 0.00 | 64 | 1014.9 |
| 20260509095047 | 51 | 293 | 3.0 | 4.0 | 0.00 | 0.00 | 0.00 | 63 | 1014.6 |
| 20260509094047 | 51 | 293 | 3.0 | 3.0 | 0.00 | 0.00 | 0.00 | 62 | 1014.9 |
| 20260509093048 | 51 | 360 | 4.0 | 5.0 | 0.00 | 0.00 | 0.00 | 61 | 1014.9 |
| 20260509092048 | 51 | 293 | 4.0 | 5.0 | 0.00 | 0.00 | 0.00 | 60 | 1015.3 |
| 20260509091049 | 51 | 338 | 3.0 | 4.0 | 0.00 | 0.00 | 0.00 | 59 | 1014.9 |
| 20260509090046 | 51 | 315 | 3.0 | 5.0 | 0.00 | 0.00 | 0.00 | 58 | 1014.9 |
| 20260509085049 | 51 | 315 | 6.0 | 7.0 | 0.00 | 0.00 | 0.00 | 57 | 1015.3 |
| 20260509084047 | 51 | 23 | 3.0 | 5.0 | 0.00 | 0.00 | 0.00 | 56 | 1015.3 |
| 20260509083047 | 51 | 338 | 4.0 | 5.0 | 0.00 | 0.00 | 0.00 | 56 | 1014.9 |
| 20260509082047 | 51 | 338 | 3.0 | 5.0 | 0.00 | 0.00 | 0.00 | 55 | 1014.9 |
| 20260509081046 | 51 | 113 | 3.0 | 5.0 | 0.00 | 0.00 | 0.00 | 55 | 1015.3 |
| 20260509080047 | 51 | 293 | 4.0 | 5.0 | 0.00 | 0.00 | 0.00 | 54 | 1015.3 |
| 20260509075047 | 51 | 293 | 4.0 | 5.0 | 0.00 | 0.00 | 0.00 | 54 | 1015.3 |
| 20260509074047 | 51 | 270 | 3.0 | 5.0 | 0.00 | 0.00 | 0.00 | 53 | 1015.3 |
| 20260509073047 | 51 | 315 | 4.0 | 5.0 | 0.00 | 0.00 | 0.00 | 52 | 1015.6 |
| 20260509072047 | 52 | 293 | 4.0 | 5.0 | 0.00 | 0.00 | 0.00 | 52 | 1015.6 |
| 20260509071047 | 51 | 315 | 5.0 | 7.0 | 0.00 | 0.00 | 0.00 | 52 | 1015.3 |
| 20260509070049 | 52 | 315 | 5.0 | 6.0 | 0.00 | 0.00 | 0.00 | 51 | 1015.3 |
| 20260509065048 | 52 | 293 | 5.0 | 7.0 | 0.00 | 0.00 | 0.00 | 51 | 1015.6 |
| 20260509064047 | 52 | 293 | 4.0 | 5.0 | 0.00 | 0.00 | 0.00 | 50 | 1015.6 |
| 20260509063047 | 52 | 315 | 5.0 | 6.0 | 0.00 | 0.00 | 0.00 | 51 | 1015.6 |
| 20260509062046 | 52 | 270 | 5.0 | 6.0 | 0.00 | 0.00 | 0.00 | 50 | 1015.3 |
| 20260509061047 | 52 | 338 | 6.0 | 8.0 | 0.00 | 0.00 | 0.00 | 50 | 1015.6 |
| 20260509060047 | 52 | 315 | 5.0 | 7.0 | 0.00 | 0.00 | 0.00 | 50 | 1016.0 |
| 20260509055047 | 51 | 338 | 5.0 | 5.0 | 0.00 | 0.00 | 0.00 | 51 | 1016.0 |
| 20260509054046 | 51 | 270 | 4.0 | 6.0 | 0.00 | 0.00 | 0.00 | 51 | 1016.0 |
| 20260509053047 | 51 | 360 | 5.0 | 7.0 | 0.00 | 0.00 | 0.00 | 51 | 1016.0 |
| 20260509052047 | 51 | 315 | 5.0 | 7.0 | 0.00 | 0.00 | 0.00 | 51 | 1016.0 |
| 20260509051049 | 52 | 248 | 7.0 | 7.0 | 0.00 | 0.00 | 0.00 | 50 | 1016.3 |
| 20260509050047 | 52 | 248 | 5.0 | 6.0 | 0.00 | 0.00 | 0.00 | 49 | 1016.0 |
| 20260509045052 | 52 | 338 | 4.0 | 5.0 | 0.00 | 0.00 | 0.00 | 49 | 1016.0 |
| 20260509044051 | 52 | 293 | 3.0 | 4.0 | 0.00 | 0.00 | 0.00 | 49 | 1016.0 |
| 20260509043049 | 53 | 293 | 6.0 | 7.0 | 0.00 | 0.00 | 0.00 | 48 | 1016.0 |
| 20260509042048 | 53 | 293 | 3.0 | 5.0 | 0.00 | 0.00 | 0.00 | 48 | 1016.0 |
| 20260509041047 | 53 | 270 | 4.0 | 5.0 | 0.00 | 0.00 | 0.00 | 48 | 1016.0 |
| 20260509040048 | 53 | 293 | 5.0 | 6.0 | 0.00 | 0.00 | 0.00 | 48 | 1016.3 |
| 20260509035047 | 53 | 293 | 4.0 | 5.0 | 0.00 | 0.00 | 0.00 | 48 | 1016.3 |
| 20260509034047 | 53 | 315 | 5.0 | 9.0 | 0.00 | 0.00 | 0.00 | 49 | 1016.3 |
| 20260509033047 | 53 | 248 | 6.0 | 9.0 | 0.00 | 0.00 | 0.00 | 49 | 1016.3 |
| 20260509032047 | 53 | 248 | 6.0 | 10.0 | 0.00 | 0.00 | 0.00 | 49 | 1016.0 |
| 20260509031047 | 54 | 293 | 4.0 | 5.0 | 0.00 | 0.00 | 0.00 | 48 | 1016.3 |
| 20260509030047 | 54 | 293 | 7.0 | 11.0 | 0.00 | 0.00 | 0.00 | 49 | 1016.3 |
| 20260509025047 | 54 | 338 | 5.0 | 7.0 | 0.00 | 0.00 | 0.00 | 49 | 1016.3 |
| 20260509024047 | 54 | 293 | 4.0 | 6.0 | 0.00 | 0.00 | 0.00 | 49 | 1016.6 |
| 20260509023048 | 54 | 315 | 4.0 | 5.0 | 0.00 | 0.00 | 0.00 | 49 | 1016.6 |
| 20260509022047 | 54 | 270 | 5.0 | 7.0 | 0.00 | 0.00 | 0.00 | 48 | 1016.6 |
| 20260509021047 | 55 | 293 | 7.0 | 10.0 | 0.00 | 0.00 | 0.00 | 48 | 1016.6 |
| 20260509020047 | 55 | 203 | 5.0 | 7.0 | 0.00 | 0.00 | 0.00 | 49 | 1016.3 |
| 20260509015047 | 55 | 293 | 4.0 | 5.0 | 0.00 | 0.00 | 0.00 | 49 | 1016.3 |
| 20260509014047 | 54 | 315 | 3.0 | 4.0 | 0.00 | 0.00 | 0.00 | 51 | 1016.3 |
| 20260509013047 | 54 | 338 | 4.0 | 7.0 | 0.00 | 0.00 | 0.00 | 52 | 1016.3 |
| 20260509012047 | 54 | 23 | 3.0 | 4.0 | 0.00 | 0.00 | 0.00 | 53 | 1016.6 |
| 20260509011047 | 54 | 203 | 7.0 | 10.0 | 0.00 | 0.00 | 0.00 | 53 | 1016.3 |
| 20260509010049 | 54 | 248 | 4.0 | 5.0 | 0.00 | 0.00 | 0.00 | 54 | 1016.3 |
| 20260509003047 | 54 | 180 | 3.0 | 4.0 | 0.00 | 0.00 | 0.00 | 54 | 1016.3 |
| 20260509002047 | 54 | 90 | 1.0 | 1.0 | 0.00 | 0.00 | 0.00 | 55 | 1016.3 |
| 20260509001048 | 54 | 203 | 1.0 | 2.0 | 0.00 | 0.00 | 0.00 | 53 | 1016.0 |
| 20260509000047 | 55 | 113 | 3.0 | 4.0 | 0.00 | 0.00 | 0.00 | 53 | 1016.3 |
| 20260508235047 | 55 | 203 | 3.0 | 4.0 | 0.00 | 0.00 | 0.00 | 53 | 1016.0 |
| 20260508234049 | 55 | 90 | 1.0 | 2.0 | 0.00 | 0.00 | 0.00 | 53 | 1016.0 |
| 20260508233047 | 56 | 158 | 1.0 | 2.0 | 0.00 | 0.00 | 0.00 | 51 | 1016.0 |
| 20260508232047 | 57 | 158 | 1.0 | 2.0 | 0.00 | 0.00 | 0.00 | 49 | 1016.0 |
| 20260508231047 | 58 | 158 | 0.0 | 1.0 | 0.00 | 0.00 | 0.00 | 46 | 1016.0 |
| 20260508230047 | 59 | 158 | 2.0 | 3.0 | 0.00 | 0.00 | 0.00 | 40 | 1016.0 |
| 20260508225049 | 59 | 248 | 2.0 | 3.0 | 0.00 | 0.00 | 0.00 | 39 | 1016.0 |
| 20260508224047 | 60 | 248 | 2.0 | 3.0 | 0.00 | 0.00 | 0.00 | 38 | 1016.0 |
| 20260508223048 | 60 | 225 | 1.0 | 2.0 | 0.00 | 0.00 | 0.00 | 39 | 1016.0 |